Regional Weather Roundup
Issued by NWS

Home | Current Version | Previous Version | Graphics & Text | Print | Product List | Glossary Off
Versions: 1 2 3 4 5 6 7 8 9 10 11 12 13 14 15 16 17 18 19 20 21 22 23 24 25 26 27 28 29 30 31 32 33 34 35 36 37 38 39 40 41 42 43 44 45 46 47 48 49 50

000
ASUS43 KDMX 221907
RWRIA

WEATHER ROUNDUP FOR IOWA
NATIONAL WEATHER SERVICE DES MOINES IA
200 PM CDT FRI MAY 22 2015

NOTE: "FAIR" INDICATES FEW OR NO CLOUDS BELOW 12,000 FEET WITH NO
SIGNIFICANT WEATHER AND/OR OBSTRUCTIONS TO VISIBILITY.

* - THESE STATIONS ARE NOT NWS STATIONS...THUS NOT UNDER NWS
QUALITY CONTROL.  THEY ALSO DO NOT REPORT WEATHER SUCH
AS PRECIPITATION OR FOG.

IAZ001>003-012>014-020>022-031>034-043>046-222000-
   NORTHWEST IOWA

CITY           SKY/WX    TMP DP  RH WIND       PRES   REMARKS
CARROLL *      SUNNY     73  34  23 S5        30.20F
CHEROKEE *     CLOUDY    73  39  29 CALM      30.20S
DENISON *      SUNNY     72  39  30 S5        30.19S
LE MARS *      MOSUNNY   73  37  27 S5G12     30.20F
ORANGE CITY *  SUNNY     72  36  26 SE3       30.20S
SHELDON *      SUNNY     73  32  21 VRB5      30.19F
SIOUX CITY     CLOUDY    73  39  29 S9        30.20F
SPENCER        MOSUNNY   73  38  27 SE7       30.20F
STORM LAKE *   SUNNY     73  34  23 VRB5G12   30.21F
$$

IAZ055>058-069>071-079>083-090>094-222000-
   SOUTHWEST IOWA

CITY           SKY/WX    TMP DP  RH WIND       PRES   REMARKS
ATLANTIC *     SUNNY     72  43  35 SW10      30.22S
AUDUBON *      SUNNY     72  39  30 S6        30.22S
CLARINDA *     SUNNY     68  43  40 S5        30.25F
COUNCIL BLFS * MOSUNNY   68  43  40 SW10G16   30.23F
CRESTON *        N/A    N/A N/A N/A MISG        N/A
HARLAN  *      SUNNY     72  39  30 SW9G15    30.26R
LAMONI         CLOUDY    70  52  52 SW8       30.24S
RED OAK *      MOSUNNY   70  45  40 S7        30.24S
SHENANDOAH *   MOSUNNY   66  50  55 S7        30.25R
$$

IAZ047>049-059>061-072>074-084-222000-
   CENTRAL IOWA

CITY           SKY/WX    TMP DP  RH WIND       PRES   REMARKS
AMES           CLOUDY    75  36  24 N9        30.20F
ANKENY *       SUNNY     73  39  29 SW5       30.21S
CHARITON *     SUNNY     73  41  31 S6        30.22S
DES MOINES     CLOUDY    75  37  25 SW3       30.21F
GRINNELL*      PTSUNNY   73  32  21 NW3       30.22S
KNOXVILLE *    SUNNY     73  36  25 CALM      30.21S
MARSHALLTOWN   MOSUNNY   74  38  27 VRB5      30.20F
PELLA *        CLOUDY    73  43  33 W3        30.23S
PERRY *          N/A     73  34  23 SW7       30.21S
$$

IAZ004>006-015-016-023>025-035-036-222000-
   NORTH CENTRAL IOWA

CITY           SKY/WX    TMP DP  RH WIND       PRES   REMARKS
ALGONA *       SUNNY     72  34  25 CALM      30.22F
CLARION *      SUNNY     72  28  20 NW7       30.21F
ESTHERVILLE    MOSUNNY   73  36  25 CALM      30.21F
FORT DODGE *   PTSUNNY   72  41  33 N5        30.22F
MASON CITY     SUNNY     72  31  22 CALM      30.23F
FOREST CITY *  SUNNY     70  34  26 CALM      30.21F
IOWA FALLS *     N/A     73  32  21 N5        30.21F
$$

IAZ007>011-017>019-026>030-037>042-050>054-066-222000-
   NORTHEAST IOWA

CITY           SKY/WX    TMP DP  RH WIND       PRES   REMARKS
CEDAR RAPIDS   SUNNY     74  36  25 NW5       30.20F
CHARLES CITY * SUNNY     73  32  21 NE7       30.22F
CLINTON *      SUNNY     73  41  31 CALM      30.23S
DECORAH *      SUNNY     70  34  26 VRB5      30.21S
DUBUQUE        SUNNY     73  45  36 VRB3      30.22S
MONTICELLO *   SUNNY     73  34  23 N6        30.21S
OELWEIN *      SUNNY     73  34  23 VRB5      30.21F
WATERLOO       SUNNY     74  37  26 CALM      30.20F
$$

IAZ064-065-067-068-078-222000-
   EAST CENTRAL IOWA

CITY           SKY/WX    TMP DP  RH WIND       PRES   REMARKS
DAVENPORT      SUNNY     75  32  20 W7        30.20F
IOWA CITY      MOSUNNY   73  37  27 CALM      30.22F
MT. PLEASANT * CLOUDY    73  39  29 SW6       30.22S
MUSCATINE *    SUNNY     75  39  27 VRB7G14   30.21F
QUAD CITIES    SUNNY     76  34  21 VRB5      30.19F
$$

IAZ062-063-075>077-085>089-095>099-222000-
   SOUTHEAST IOWA

CITY           SKY/WX    TMP DP  RH WIND       PRES   REMARKS
BURLINGTON     PTSUNNY   74  41  30 W5        30.21S
FAIRFIELD *    SUNNY     73  34  23 CALM      30.22F
FORT MADISON * SUNNY     73  43  33 CALM      30.23S
KEOKUK *       SUNNY     73  41  31 W6        30.22S
OSKALOOSA *      N/A     75  34  22 N7        30.22F
CENTERVILLE *  SUNNY     73  73 100 CALM      30.24S
OTTUMWA        CLOUDY    73  39  29 W7        30.21F
WASHINGTON *   SUNNY     75  37  25 SW10      30.23S
$$

ABBREVIATIONS USED IN REMARKS
   TC - TEMPERATURES IN CELSIUS
  WCI - WIND CHILL INDEX
   HX - HEAT INDEX
  VSB - VISIBILITY
$$




USA.gov is the U.S. government's official web portal to all federal, state and local government web resources and services.